Lapse_Rate
5.4 5.3 5.1 5.0 5.0 5.1 5.3 5.3 5.2 5.3 5.4 5.5 5.3 5.8 5.6 5.3 5.5 5.4 5.3 5.3 5.2 5.3 5.2 5.3 5.2 5.7 5.9 6.0 5.9 5.9 6.2 6.1 6.2 6.4 6.4 6.6 6.3 6.5
5.0 5.0 5.1 5.1 5.1 5.4 5.7 5.6 5.5 5.2 5.2 5.4 5.3 5.6 5.4 5.5 5.2 5.3 5.3 5.2 5.2 5.3 5.3 5.3 5.2 5.4 5.6 5.9 6.0 6.2 6.4 6.1 6.2 6.4 6.6 6.5 6.5 6.5
4.9 4.9 5.2 5.6 5.8 5.5 5.4 5.3 5.3 5.3 5.1 5.3 5.3 5.4 5.5 5.6 5.6 5.6 5.3 5.2 5.1 5.4 5.2 5.2 5.0 5.2 5.4 5.4 5.4 5.9 6.1 6.3 6.1 6.2 6.6 6.4 6.6 6.5
5.8 6.1 5.7 5.3 5.4 5.2 5.3 5.4 5.4 5.4 5.3 5.4 5.5 5.5 5.6 5.5 5.5 5.6 5.6 5.6 5.4 5.6 5.4 5.3 5.2 5.3 5.2 5.1 5.2 5.8 5.8 6.0 6.3 6.3 6.2 6.6 6.7 6.5
5.8 5.4 5.2 5.1 5.1 5.3 5.3 5.5 5.5 5.4 5.4 5.4 5.4 5.2 5.2 5.4 5.4 5.1 5.2 5.2 5.3 5.5 5.4 5.4 5.3 5.4 5.3 5.1 5.0 5.8 5.9 5.8 6.5 6.4 6.2 6.4 7.2 7.0
5.5 5.6 5.5 5.5 5.5 5.5 5.5 5.6 5.5 5.4 5.3 5.3 5.3 5.3 5.4 5.3 5.1 5.0 4.7 4.7 5.0 5.2 5.5 5.1 5.4 5.2 5.3 5.4 5.4 5.9 5.9 6.0 6.2 6.3 5.9 6.3 6.7 6.9
5.8 5.8 5.8 5.7 5.6 5.5 5.5 5.4 5.3 5.2 5.2 5.2 5.1 5.0 5.0 4.9 4.8 4.7 4.4 4.2 4.7 5.0 5.6 5.0 5.9 5.6 6.1 6.1 5.9 6.1 5.9 6.3 6.2 5.9 6.1 6.2 6.6 6.2
5.8 5.7 5.6 5.6 5.4 5.2 5.1 5.0 5.0 4.9 4.9 4.9 4.8 4.5 4.4 4.3 4.2 4.0 3.8 3.9 4.1 5.3 5.7 5.8 6.0 6.3 6.0 5.8 6.3 6.0 5.9 6.1 6.2 6.4 6.1 6.6 6.5 6.1
5.8 5.8 5.6 5.5 5.4 5.1 5.1 5.0 4.8 4.5 4.2 4.0 3.9 3.7 3.7 3.7 3.7 3.8 3.6 3.7 3.8 5.2 5.7 6.3 6.6 6.7 6.6 6.3 6.3 5.9 5.7 5.8 6.3 6.5 6.5 6.3 6.3 6.4
5.8 5.8 5.8 5.6 5.4 5.3 5.3 5.2 4.7 4.6 4.4 4.1 3.5 3.3 3.0 3.1 2.9 2.9 3.1 3.3 4.0 6.1 6.7 6.5 7.2 7.0 6.9 6.5 6.5 6.0 6.4 6.4 6.5 6.7 6.6 6.3 6.3 6.6
5.5 5.3 5.2 5.2 5.0 4.5 4.3 4.1 3.9 3.7 3.5 3.4 3.3 3.3 3.1 2.8 2.5 2.5 3.2 5.0 5.6 6.6 7.1 6.6 6.3 7.2 6.9 6.9 6.6 6.2 6.3 6.2 6.8 6.8 6.1 6.2 6.4 6.4
5.0 4.6 4.2 3.9 3.8 3.6 3.3 3.3 3.0 2.8 2.7 2.7 2.9 2.7 2.5 2.6 2.9 3.8 5.9 6.8 7.5 7.4 6.8 6.5 6.9 6.9 6.7 6.8 6.9 6.5 6.4 6.9 6.7 6.5 6.0 6.3 6.4 6.5
4.3 3.9 3.7 3.4 3.4 3.0 2.8 2.3 2.1 2.0 2.2 2.5 2.4 2.4 2.5 2.5 3.9 5.7 6.9 7.5 7.5 7.2 7.3 7.1 6.8 6.3 6.0 6.2 6.4 6.6 6.7 6.9 6.7 6.4 6.4 6.4 6.5 6.5
3.8 3.4 3.1 2.9 2.6 2.2 2.0 2.0 2.1 2.3 2.4 2.3 2.2 2.3 2.7 4.1 5.8 6.9 7.3 7.6 7.4 7.2 6.9 7.2 6.8 6.6 6.5 6.3 6.0 6.7 6.8 6.9 6.6 6.6 6.5 6.4 6.4 6.5
3.1 2.7 2.4 2.3 2.2 2.2 2.3 2.5 2.5 2.3 2.2 2.2 2.2 2.6 4.1 5.8 6.8 7.2 7.1 7.4 7.3 7.3 7.0 6.8 6.6 6.4 6.3 6.3 6.4 6.0 6.5 6.9 6.6 6.5 6.6 6.3 6.4 6.5
3.0 2.7 2.6 2.6 2.5 2.5 2.5 2.4 2.3 2.1 2.0 2.2 2.8 4.5 5.8 6.5 7.2 7.6 7.6 7.6 7.4 7.2 7.0 6.5 6.0 5.4 5.8 6.1 6.3 5.6 6.5 6.4 6.5 6.4 6.3 6.4 6.3 6.3
3.0 3.1 3.2 3.0 2.8 2.7 2.7 2.5 2.2 2.0 2.1 2.8 4.2 5.8 6.6 6.9 7.1 7.4 7.2 7.2 7.4 7.2 6.8 6.4 6.1 5.8 5.4 5.3 6.0 5.4 6.0 6.2 6.2 6.2 6.3 6.2 6.1 6.2
3.2 3.1 2.8 2.4 2.5 2.7 2.7 2.5 2.4 2.4 2.6 4.0 5.6 6.4 6.9 7.0 7.1 7.2 7.2 7.1 6.9 6.9 6.9 6.3 5.7 5.3 5.3 5.3 5.5 5.5 5.9 5.8 5.9 6.0 5.9 6.1 6.1 6.3
3.1 2.8 2.4 2.3 2.5 2.6 2.5 2.5 2.8 3.0 3.8 5.4 6.3 6.7 7.0 7.0 7.0 7.1 7.0 7.0 7.0 6.7 6.4 6.1 5.6 5.5 5.1 5.0 5.2 4.8 5.4 5.4 5.7 5.5 5.2 5.7 6.0 6.3
2.7 2.5 2.4 2.5 2.6 2.6 2.6 2.7 3.1 3.9 5.0 6.2 6.6 6.7 7.0 7.0 6.9 6.9 7.0 6.8 6.7 6.5 6.3 6.0 5.8 5.6 5.2 4.9 4.9 4.9 4.8 5.3 5.4 5.6 5.1 5.7 6.1 6.0
2.8 2.7 2.6 2.7 2.7 2.5 2.6 3.0 3.6 4.9 5.9 6.7 6.7 6.8 6.8 6.9 7.0 6.8 6.6 6.7 6.6 6.3 6.2 6.0 5.6 5.4 5.2 4.7 4.8 5.0 4.6 5.1 5.4 5.2 4.9 5.3 5.8 5.9
3.0 2.9 2.9 2.8 2.6 2.7 3.0 3.5 4.5 5.5 6.4 6.8 6.8 6.9 6.7 6.8 6.8 6.6 6.5 6.4 6.4 6.1 6.0 5.8 5.6 5.5 5.4 4.9 4.8 4.7 4.7 4.9 5.3 5.2 5.2 5.3 5.3 5.7
3.0 3.0 3.0 2.8 2.8 3.1 3.6 4.4 5.4 6.2 6.7 6.8 6.9 6.8 6.6 6.6 6.6 6.5 6.5 6.4 6.2 6.0 5.7 5.6 5.5 5.3 5.0 5.1 4.5 4.4 4.7 4.9 5.1 5.4 5.3 5.4 5.3 5.5
Wind_Speed
5 3 4 2 3 5 5 7 8 12 13 7 5 7 7 11 16 16 16 20 21 20 18 18 13 17 15 13 11 9 9 10 10 13 13 13 16 17
3 5 5 4 6 6 6 7 8 10 9 4 5 5 4 6 12 17 17 17 22 22 21 18 19 18 17 16 14 11 10 11 13 13 12 14 15 17
4 4 5 3 4 4 4 5 6 6 9 7 3 3 4 8 6 13 12 16 17 23 24 23 23 22 18 16 15 13 13 13 14 13 13 13 16 17
6 4 4 3 4 4 3 4 6 7 7 12 5 4 7 6 7 8 7 13 13 20 24 23 21 21 21 20 18 16 15 13 12 14 13 14 16 15
4 5 6 6 6 6 7 6 6 6 7 8 8 2 4 2 3 4 5 8 11 16 25 24 25 24 23 20 18 16 14 12 13 14 14 13 15 14
6 6 6 6 8 9 8 9 9 9 8 8 8 6 3 2 3 4 6 5 8 7 16 18 22 24 24 22 21 17 15 13 14 13 17 14 14 14
6 6 6 8 8 8 7 10 12 10 9 9 9 8 3 3 5 6 9 8 9 6 7 7 6 7 15 24 18 18 16 15 15 14 15 16 14 14
6 7 8 8 10 11 10 10 10 10 11 9 10 11 13 9 9 8 8 4 6 7 7 8 7 8 7 12 20 21 19 17 15 13 14 13 11 14
7 8 8 7 10 10 12 15 15 16 15 11 12 11 13 11 10 10 10 7 10 3 10 9 6 8 5 9 19 19 17 15 16 11 13 13 11 12
6 7 8 10 10 14 14 13 14 14 13 11 13 12 12 12 12 10 11 10 1 1 4 4 4 7 5 7 19 19 17 16 16 9 11 11 10 12
6 7 9 9 13 18 15 13 14 14 16 19 19 19 20 23 18 8 4 4 4 3 3 3 2 2 2 4 9 18 18 17 13 7 11 10 9 10
7 9 9 11 18 21 15 14 14 13 14 16 16 16 14 13 18 13 8 8 4 2 4 4 3 2 2 2 3 7 10 15 13 9 9 7 8 7
7 8 9 20 23 24 22 12 14 17 17 13 12 10 10 9 7 7 6 8 4 2 4 5 2 3 2 3 2 5 6 7 9 9 7 5 6 6
8 8 10 20 22 23 18 21 24 20 9 8 8 9 10 7 6 4 4 2 1 3 7 4 3 3 4 3 3 4 3 5 6 5 3 2 3 5
7 12 17 19 19 15 18 21 20 9 9 8 8 9 7 5 1 1 2 3 4 4 5 3 3 4 2 4 4 5 8 6 5 4 3 2 1 2
12 10 14 14 14 13 11 11 8 9 9 8 7 8 4 2 2 1 1 2 1 1 5 3 4 4 3 2 1 6 6 4 5 4 4 2 1 2
12 9 9 9 9 8 9 9 8 8 8 8 8 8 6 3 2 1 1 2 2 3 2 2 5 5 5 3 3 5 6 3 5 6 4 4 2 2
8 8 9 8 8 9 9 9 9 11 8 8 8 8 7 5 3 2 2 3 3 3 3 3 5 3 2 3 8 5 4 5 5 5 4 4 2 2
7 7 8 8 9 9 8 9 10 9 9 8 9 7 7 5 5 3 3 3 3 4 4 5 5 3 3 3 2 10 4 6 6 5 3 1 3 3
6 7 8 8 8 9 9 9 9 9 9 8 8 7 7 5 4 4 4 5 4 3 4 5 5 4 4 4 3 3 8 5 4 5 4 5 6 8
7 8 8 8 8 9 8 8 10 9 10 9 8 8 7 5 5 4 5 8 7 4 6 5 4 9 5 5 3 3 4 8 5 2 5 5 4 3
6 8 8 8 8 8 9 9 10 10 10 9 9 7 7 5 5 5 5 5 6 5 4 5 7 5 3 2 6 7 5 6 9 12 10 5 1 4
7 8 8 8 8 8 8 9 9 10 10 10 9 7 6 5 5 5 5 5 5 6 8 6 6 4 5 3 6 7 10 8 4 5 6 14 12 15
Wind_Direction
195 201 218 201 203 224 225 228 237 268 272 249 227 227 229 223 228 205 208 206 213 218 227 240 218 175 171 183 193 210 241 253 263 267 277 284 289 292
187 215 216 224 231 226 230 235 237 253 261 212 222 226 220 235 228 216 213 204 207 213 215 201 176 177 183 192 192 200 223 251 262 268 278 284 288 289
203 231 242 273 254 246 236 236 246 248 267 279 259 239 238 240 233 222 211 208 211 211 214 194 186 188 194 195 198 202 219 237 259 269 274 283 288 290
28 25 357 2 329 312 297 288 267 263 266 273 265 227 222 227 236 221 223 220 217 214 213 202 200 198 199 201 203 210 220 232 252 264 277 283 283 285
32 15 1 346 329 330 321 322 307 302 289 286 288 244 236 209 236 244 228 229 222 224 213 207 204 204 202 200 203 212 218 246 257 268 267 276 285 282
26 17 3 353 337 328 311 298 293 291 287 282 285 287 230 214 249 238 251 230 233 233 234 215 204 205 205 203 202 204 215 227 247 254 272 272 278 276
13 6 358 350 320 317 316 311 307 298 293 289 281 273 223 196 215 223 240 235 229 200 206 219 226 210 203 207 202 193 204 226 240 254 265 276 277 275
5 358 348 337 343 315 319 309 297 295 289 289 289 283 281 258 252 241 236 211 236 187 217 227 201 195 199 208 196 189 204 223 227 241 266 276 279 282
359 346 337 338 327 329 326 315 305 298 290 284 285 285 289 288 268 243 232 226 238 215 198 219 186 210 190 195 195 194 202 215 230 233 261 273 275 276
350 343 338 330 332 341 329 320 312 305 300 298 294 293 289 291 285 258 244 243 342 327 205 250 177 208 175 190 203 200 206 211 221 223 261 270 283 279
343 334 333 325 345 332 327 322 313 306 305 297 286 277 278 282 280 277 221 193 231 227 184 147 222 127 157 187 199 200 197 208 216 219 251 276 295 292
338 332 342 343 329 327 323 319 312 306 308 308 305 299 284 278 282 272 249 231 227 210 192 171 153 137 143 299 175 192 194 201 206 208 243 279 310 283
338 338 335 335 328 325 324 313 307 308 302 297 297 294 288 280 274 271 243 226 201 234 201 161 139 149 105 134 204 190 194 172 200 203 224 269 338 335
336 326 319 322 325 321 320 316 318 319 313 303 298 297 290 278 271 266 267 236 333 233 173 138 141 154 139 139 176 171 187 175 197 196 194 250 289 322
325 315 318 322 316 316 317 323 327 321 310 303 299 298 286 281 245 268 55 77 62 25 113 113 138 142 149 146 167 154 174 189 195 177 159 202 292 324
325 317 321 323 322 325 325 323 315 317 315 311 302 302 294 264 246 209 208 192 110 66 47 75 120 142 141 97 108 154 167 176 163 154 149 128 98 39
322 322 329 332 329 327 322 318 314 308 322 323 318 311 290 274 257 213 233 197 217 156 127 71 78 74 53 104 153 144 151 122 158 146 147 127 78 46
317 319 321 318 315 317 314 315 315 317 319 319 310 310 295 272 255 205 201 222 205 166 155 138 138 116 109 65 44 124 138 146 145 139 133 123 110 63
313 311 309 310 310 310 309 310 312 315 313 310 310 306 297 268 264 239 219 210 195 165 156 154 175 163 147 134 84 45 141 149 139 122 124 95 129 136
312 307 306 304 308 307 308 309 310 313 313 310 308 303 293 267 244 230 221 220 191 149 152 161 177 166 166 145 139 91 29 138 130 120 118 89 88 97
309 307 304 304 302 306 310 307 306 307 313 310 302 299 293 262 250 236 228 218 190 171 173 175 164 116 104 111 105 105 71 65 31 118 141 129 126 131
301 297 298 299 303 302 305 304 304 307 312 308 302 299 288 262 247 237 217 209 201 185 155 129 131 136 115 146 122 129 126 92 85 88 67 53 178 166
290 292 295 297 299 299 300 300 298 305 305 300 299 298 288 267 235 227 210 205 177 164 148 142 138 130 115 75 124 146 133 124 127 106 64 51 70 86